When you browse on this site, cookies collect data to enhance your experience and personalize the content and advertising you see.
Visit our Privacy Policy to learn more. By continuing to use the site, you agree to this use of cookies and data.
  • In Slovakia
  • List of Countries
  • For 7 days
  • Water Temperature
  • Satellite Maps
  • Weather Map
  • Weather Widgets
  • user-avatar
    Login

    Hourly Weather Neuquén

    Today, 18 November, Sunday

    Time Temperature Precipitation Wind Pressure Humidity
    00:00 +14°C° 0 mm 7 mps 735 mmHg 42%
    01:00 +12°C° 0 mm 7 mps 735 mmHg 45%
    02:00 +12°C° 0 mm 7 mps 735 mmHg 46%
    03:00 +12°C° 0 mm 7 mps 735 mmHg 47%
    04:00 +11°C° 0 mm 6 mps 735 mmHg 48%
    05:00 +13°C° 0 mm 6 mps 735 mmHg 44%
    06:00 +14°C° 0 mm 6 mps 735 mmHg 39%
    07:00 +16°C° 0 mm 7 mps 735 mmHg 34%
    08:00 +17°C° 0 mm 8 mps 735 mmHg 30%
    09:00 +20°C° 0 mm 8 mps 735 mmHg 26%
    10:00 +21°C° 0 mm 8 mps 734 mmHg 22%
    11:00 +23°C° 0 mm 8 mps 734 mmHg 20%
    12:00 +24°C° 0 mm 8 mps 733 mmHg 19%
    13:00 +26°C° 0 mm 7 mps 733 mmHg 17%
    14:00 +26°C° 0 mm 7 mps 733 mmHg 16%
    15:00 +27°C° 0 mm 6 mps 732 mmHg 16%
    16:00 +27°C° 0 mm 6 mps 732 mmHg 15%
    17:00 +26°C° 0 mm 5 mps 732 mmHg 17%
    18:00 +25°C° 0 mm 4 mps 732 mmHg 19%
    19:00 +23°C° 0 mm 4 mps 732 mmHg 20%
    20:00 +22°C° 0 mm 4 mps 732 mmHg 23%
    21:00 +22°C° 0 mm 4 mps 732 mmHg 25%
    22:00 +21°C° 0 mm 4 mps 732 mmHg 28%
    23:00 +20°C° 0 mm 4 mps 732 mmHg 31%

    Tomorrow, 19 November, Monday

    Time Temperature Precipitation Wind Pressure Humidity
    00:00 +19°C° 0 mm 5 mps 732 mmHg 34%
    01:00 +17°C° 0 mm 5 mps 731 mmHg 38%
    02:00 +17°C° 0 mm 5 mps 731 mmHg 39%
    03:00 +16°C° 0 mm 5 mps 731 mmHg 40%
    04:00 +16°C° 0 mm 5 mps 731 mmHg 41%
    05:00 +19°C° 0 mm 4 mps 731 mmHg 37%
    06:00 +20°C° 0 mm 4 mps 731 mmHg 33%
    07:00 +22°C° 0 mm 4 mps 732 mmHg 29%
    08:00 +23°C° 0 mm 4 mps 731 mmHg 26%
    09:00 +26°C° 0 mm 4 mps 731 mmHg 23%
    10:00 +27°C° 0 mm 4 mps 731 mmHg 20%
    11:00 +29°C° 0 mm 5 mps 730 mmHg 18%
    12:00 +30°C° 0 mm 5 mps 730 mmHg 17%
    13:00 +33°C° 0 mm 6 mps 729 mmHg 15%
    14:00 +33°C° 0 mm 7 mps 729 mmHg 14%
    15:00 +34°C° 0 mm 9 mps 728 mmHg 13%
    16:00 +36°C° 0 mm 10 mps 728 mmHg 12%
    17:00 +33°C° 0 mm 9 mps 728 mmHg 13%
    18:00 +31°C° 0 mm 9 mps 729 mmHg 15%
    19:00 +29°C° 0 mm 9 mps 729 mmHg 16%
    20:00 +27°C° 0 mm 9 mps 730 mmHg 19%
    21:00 +26°C° 0 mm 9 mps 730 mmHg 22%
    22:00 +23°C° 0 mm 8 mps 731 mmHg 25%
    23:00 +22°C° 0 mm 8 mps 731 mmHg 27%

    Day after tomorrow, 20 November, Tuesday

    Time Temperature Precipitation Wind Pressure Humidity
    00:00 +21°C° 0 mm 8 mps 731 mmHg 29%
    01:00 +20°C° 0 mm 7 mps 731 mmHg 32%
    02:00 +18°C° 0 mm 7 mps 731 mmHg 35%
    03:00 +19°C° 0 mm 6 mps 731 mmHg 37%
    04:00 +17°C° 0 mm 6 mps 731 mmHg 40%
    05:00 +19°C° 0 mm 5 mps 731 mmHg 37%
    06:00 +20°C° 0 mm 5 mps 732 mmHg 35%
    07:00 +22°C° 0 mm 4 mps 732 mmHg 32%
    08:00 +23°C° 0 mm 5 mps 732 mmHg 28%
    09:00 +26°C° 0 mm 5 mps 731 mmHg 24%
    10:00 +28°C° 0 mm 5 mps 731 mmHg 20%
    11:00 +30°C° 0 mm 6 mps 730 mmHg 17%
    12:00 +33°C° 0 mm 7 mps 730 mmHg 14%
    13:00 +35°C° 0 mm 7 mps 729 mmHg 11%
    14:00 +37°C° 0 mm 9 mps 728 mmHg 10%
    15:00 +37°C° 0 mm 10 mps 728 mmHg 9%
    16:00 +38°C° 0 mm 11 mps 727 mmHg 8%
    17:00 +36°C° 0 mm 11 mps 727 mmHg 11%
    18:00 +33°C° 0 mm 11 mps 728 mmHg 14%
    19:00 +31°C° 0 mm 10 mps 728 mmHg 17%
    20:00 +29°C° 0 mm 10 mps 728 mmHg 21%
    21:00 +27°C° 0 mm 10 mps 728 mmHg 26%
    22:00 +26°C° 0 mm 9 mps 729 mmHg 30%
    23:00 +24°C° 0 mm 9 mps 728 mmHg 31%

    21 November, Wednesday

    Time Temperature Precipitation Wind Pressure Humidity
    00:00 +23°C° 0 mm 9 mps 728 mmHg 33%
    01:00 +22°C° 0 mm 9 mps 728 mmHg 34%
    02:00 +22°C° 0 mm 8 mps 728 mmHg 35%
    03:00 +22°C° 0 mm 8 mps 728 mmHg 36%
    04:00 +21°C° 0 mm 8 mps 727 mmHg 37%
    05:00 +23°C° 0 mm 10 mps 727 mmHg 34%
    06:00 +26°C° 0 mm 11 mps 727 mmHg 31%
    07:00 +27°C° 0 mm 13 mps 727 mmHg 28%
    08:00 +29°C° 0 mm 14 mps 727 mmHg 27%
    09:00 +31°C° 0 mm 15 mps 727 mmHg 26%
    10:00 +33°C° 0 mm 15 mps 727 mmHg 25%
    11:00 +33°C° 0 mm 16 mps 726 mmHg 24%
    12:00 +35°C° 0 mm 16 mps 726 mmHg 23%
    13:00 +35°C° 0 mm 16 mps 725 mmHg 22%
    14:00 +35°C° 0 mm 16 mps 725 mmHg 23%
    15:00 +33°C° 0 mm 16 mps 725 mmHg 24%
    16:00 +32°C° 0 mm 16 mps 725 mmHg 24%
    17:00 +29°C° 0 mm 15 mps 726 mmHg 28%
    18:00 +27°C° 0 mm 15 mps 727 mmHg 32%
    19:00 +24°C° 0 mm 14 mps 728 mmHg 36%
    20:00 +22°C° 0 mm 14 mps 730 mmHg 34%
    21:00 +19°C° 0 mm 13 mps 731 mmHg 33%
    22:00 +18°C° 0 mm 12 mps 733 mmHg 32%
    23:00 +16°C° 0 mm 11 mps 734 mmHg 34%

    22 November, Thursday

    Time Temperature Precipitation Wind Pressure Humidity
    00:00 +14°C° 0 mm 10 mps 734 mmHg 36%
    01:00 +13°C° 0 mm 9 mps 735 mmHg 39%
    02:00 +12°C° 0 mm 8 mps 736 mmHg 36%
    03:00 +12°C° 0 mm 8 mps 737 mmHg 33%
    04:00 +11°C° 0 mm 7 mps 738 mmHg 31%
    05:00 +13°C° 0 mm 6 mps 739 mmHg 27%
    06:00 +14°C° 0 mm 6 mps 739 mmHg 24%
    07:00 +14°C° 0 mm 6 mps 740 mmHg 21%
    08:00 +15°C° 0 mm 4 mps 740 mmHg 18%
    09:00 +17°C° 0 mm 3 mps 740 mmHg 16%
    10:00 +18°C° 0 mm 2 mps 740 mmHg 13%
    11:00 +20°C° 0 mm 1 mps 739 mmHg 12%
    12:00 +21°C° 0 mm 1 mps 739 mmHg 10%
    13:00 +22°C° 0 mm 1 mps 739 mmHg 9%
    14:00 +23°C° 0 mm 2 mps 738 mmHg 9%
    15:00 +23°C° 0 mm 2 mps 738 mmHg 9%
    16:00 +24°C° 0 mm 2 mps 737 mmHg 8%
    17:00 +22°C° 0 mm 3 mps 737 mmHg 9%
    18:00 +22°C° 0 mm 3 mps 737 mmHg 10%
    19:00 +22°C° 0 mm 3 mps 737 mmHg 10%
    20:00 +21°C° 0 mm 4 mps 737 mmHg 12%
    21:00 +21°C° 0 mm 4 mps 737 mmHg 13%
    22:00 +20°C° 0 mm 4 mps 737 mmHg 14%
    23:00 +20°C° 0 mm 5 mps 737 mmHg 17%

    23 November, Friday

    Time Temperature Precipitation Wind Pressure Humidity
    00:00 +19°C° 0 mm 5 mps 736 mmHg 19%
    01:00 +19°C° 0 mm 5 mps 736 mmHg 22%
    02:00 +17°C° 0 mm 6 mps 736 mmHg 26%
    03:00 +17°C° 0 mm 6 mps 735 mmHg 30%
    04:00 +16°C° 0 mm 6 mps 735 mmHg 35%
    05:00 +17°C° 0 mm 8 mps 735 mmHg 35%
    06:00 +18°C° 0 mm 9 mps 735 mmHg 35%
    07:00 +19°C° 0 mm 10 mps 735 mmHg 35%
    08:00 +22°C° 0 mm 10 mps 735 mmHg 31%
    09:00 +24°C° 0 mm 10 mps 735 mmHg 28%
    10:00 +26°C° 0 mm 10 mps 734 mmHg 25%
    11:00 +27°C° 0 mm 10 mps 733 mmHg 23%
    12:00 +28°C° 0 mm 9 mps 732 mmHg 21%
    13:00 +29°C° 0 mm 9 mps 732 mmHg 19%
    14:00 +30°C° 0 mm 7 mps 731 mmHg 18%
    15:00 +32°C° 0 mm 6 mps 731 mmHg 16%
    16:00 +32°C° 0 mm 5 mps 730 mmHg 14%
    17:00 +30°C° 0 mm 6 mps 730 mmHg 15%
    18:00 +29°C° 0 mm 6 mps 731 mmHg 16%
    19:00 +27°C° 0 mm 7 mps 731 mmHg 17%
    20:00 +27°C° 0 mm 7 mps 731 mmHg 18%
    21:00 +26°C° 0 mm 6 mps 732 mmHg 19%
    22:00 +24°C° 0 mm 6 mps 732 mmHg 21%
    23:00 +23°C° 0 mm 5 mps 732 mmHg 23%
    Show more